Regional Weather Roundup
Issued by NWS

Home | Current Version | Previous Version | Text Only | Print | Product List | Glossary Off
Versions: 1 2 3 4 5 6 7 8 9 10 11 12 13 14 15 16 17 18 19 20 21 22 23 24 25 26 27 28 29 30 31 32 33 34 35 36 37 38 39 40 41 42 43 44 45 46 47 48 49 50

000
ASUS45 KTFX 232310
RWRMT
MONTANA REGIONAL WEATHER ROUNDUP
NATIONAL WEATHER SERVICE GREAT FALLS MT
400 PM MST MON JAN 23 2017

NOTE: "FAIR" INDICATES FEW OR NO CLOUDS BELOW 12000 FEET WITH NO
SIGNIFICANT WEATHER AND/OR OBSTRUCTIONS TO VISIBILITY.

MTZ001>007-043-240000-
WEST OF THE DIVIDE

CITY           SKY/WX    TMP DP  RH WIND       PRES   REMARKS
KALISPELL      CLOUDY    30  20  66 CALM      29.72R
MISSOULA       CLOUDY    33  26  75 N9        29.69S WCI  25
BUTTE          CLOUDY    22  15  75 CALM      29.60R
MULLAN PASS    CLOUDY    23  19  85 CALM      29.61R
ANACONDA         N/A     23  16  74 N13       29.64R WCI  11
DEER LODGE       N/A     25  16  68 N13       29.68R WCI  13
EUREKA           N/A     34  21  60 CALM      29.76R
HAMILTON         N/A     27  19  74 CALM      29.67S
RONAN            N/A     28  26  92 CALM      29.79R
$$

MTZ008-052>055-240000-
SOUTHWEST MONTANA

CITY           SKY/WX    TMP DP  RH WIND       PRES   REMARKS
BOZEMAN        CLOUDY    23  20  88 CALM      29.66R
DILLON         CLOUDY    19  15  84 SW5       29.58R
W YELLOWSTONE  CLOUDY    28  18  64 N9        29.46R WCI  20
ENNIS          CLOUDY    23  18  80 N22G28    29.61R WCI   8
$$

MTZ009-010-012-014-046-048-049-054-240000-
EAST SLOPES AND CENTRAL MONTANA

CITY           SKY/WX    TMP DP  RH WIND       PRES   REMARKS
CUT BANK       CLOUDY    21  18  88 N8        29.76S WCI  11
GREAT FALLS    CLOUDY    21  16  81 N7        29.77R WCI  12
MALMSTROM AFB  FLURRIES  21  18  91 N7        29.79S WCI  12
HELENA         CLOUDY    26  18  71 NW8       29.72S WCI  18
BOWMANS CRNR   FLURRIES  19  17  90 N8        29.73R WCI   9
CHOTEAU          N/A     21  19  93 NE6       29.79R WCI  14
CONRAD           N/A     21  20  96 NW5       29.81R
POWER          FLURRIES  18  17  94 N8        29.77R WCI   8
RAYNESFORD     FLURRIES  21  20  96 NW7       29.75R WCI  12
ULM            FLURRIES  22  19  86 MISG      29.78R
$$

MTZ011-013-016-021-045-047-050-051-240000-
NORTH CENTRAL MONTANA

CITY           SKY/WX    TMP DP  RH WIND       PRES   REMARKS
HAVRE          CLOUDY    22  19  89 NW8       29.83R WCI  12
LEWISTOWN      CLOUDY    21  19  92 W8        29.72R WCI  11
CHINOOK          N/A     23  18  80 NW8       29.83R WCI  14
DENTON         FLURRIES  21  20  97 N8        29.72R WCI  12
FORT BENTON      N/A     25  19  80 MISG      29.83R
GEYSER         FLURRIES  22  20  94 NE3       29.73R
GRASS RANGE    CLOUDY    25  20  80 W13       29.70R WCI  14
JUDITH GAP     FLURRIES  21  19  91 N26       29.66R WCI   4
ROY            FLURRIES  23  22  97 MISG      29.73R
STANFORD       FLURRIES  21  20  98 N12       29.71R WCI   9
WINIFRED       FLURRIES  21  20  98 NW16      29.74R WCI   7
$$

MTZ017>020-022>027-061-062-240000-
NORTHEAST MONTANA

CITY           SKY/WX    TMP DP  RH WIND       PRES   REMARKS
GLASGOW        CLOUDY    24  18  77 NW5       29.79R
JORDAN           N/A     27  23  85 NE9       29.76R WCI  18
SIDNEY         FLURRIES  25  22  88 N9        29.80R WCI  15
WOLF POINT     LGT SNOW  26  21  81 E3        29.80S
PLENTYWOOD       N/A     21  16  79 NW10      29.78R WCI  10
POPLAR           N/A     25  19  80 CALM      29.81S VSB 1
$$

MTZ028>42-056>058-240000-
SOUTHCENTRAL AND SOUTHEAST MONTANA

CITY           SKY/WX    TMP DP  RH WIND       PRES   REMARKS
BAKER          CLOUDY    21  18  88 SE5       29.73R FOG
BILLINGS       CLOUDY    24  20  84 CALM      29.71R
LIVINGSTON     FLURRIES  27  20  75 E9        29.63R WCI  18
MILES CITY     FOG       23  20  88 N3        29.76R VSB 3/4
BIG TIMBER     CLOUDY    28  21  74 NE12      29.68R WCI  18
EKALAKA          N/A     17  12  80 N5        29.69R
FORSYTH          N/A     25  25 100 CALM      29.75R
HARLOWTON      CLOUDY    24  20  82 N24G30    29.67R WCI   9
$$

REGIONAL REPORTS...DAKOTAS

CITY           SKY/WX    TMP DP  RH WIND       PRES   REMARKS
WILLISTON      LGT SNOW  22  19  89 NW6       29.80R FOG     WCI  14
MINOT          MOCLDY    24  18  77 W15       29.76S WCI  11
DICKINSON      CLOUDY    23  20  88 NW6       29.73R WCI  16
BEACH          CLOUDY    23  23 100 E5        29.77R
CROSBY         CLOUDY    21  18  86 NW13      29.79S WCI   9
TIOGA          FLURRIES  19  19 100 NW14      29.78R WCI   6
WATFORD CITY   CLOUDY    23  21  93 N9        29.79R WCI  13
BISMARCK       CLOUDY    30  24  78 S3        29.78S
GRAND FORKS    CLOUDY    31  22  69 SW8       29.81R WCI  23
FARGO          CLOUDY    34  27  75 NW6       29.83R WCI  29
BUFFALO SD       N/A     25  20  81 N7        29.63R WCI  17
RAPID CITY     CLOUDY    23  20  88 N20       29.65R WCI   8
$$

REGIONAL REPORTS...WYOMING/IDAHO/WASHINGTON

CITY           SKY/WX    TMP DP  RH WIND       PRES   REMARKS
GILLETTE       CLEAR     28  21  75 N9        29.60R WCI  19
SHERIDAN       CLOUDY    22  18  85 W16       29.65R WCI   8
BUFFALO WY     CLOUDY    27  18  69 NW12      29.61R WCI  17
CODY           CLOUDY    22  18  85 NE15      29.58R WCI   9
YELLOWSTONE LA   N/A     22  15  75 CALM      29.47R
IDAHO FALLS    CLOUDY    30  28  92 N10       29.42S FOG     WCI  21
SALMON         CLOUDY    16  12  86 CALM      29.61S
BOISE          CLOUDY    32  26  78 NW13      29.63R WCI  22
SPOKANE        PTSUNNY   34  30  85 CALM      29.75R
$$

REGIONAL REPORTS...ALBERTA

CITY           SKY/WX    TMP DP  RH WIND       PRES   REMARKS
EDMONTON       MOCLDY    14   7  73 E2        29.87R
CALGARY        CLOUDY    25  21  86 S3        29.76R FOG
LETHBRIDGE     MOCLDY    25  19  80 SW7       29.80R WCI  17
MEDICINE HAT   CLOUDY    19  18  93 NW6       29.85R WCI  11
WATERTON GATE    N/A     23  18  80 NE3         N/A
CARDSTON         N/A     30  19  64 S2          N/A
MILK RIVER       N/A     25  23  93 N5          N/A
$$

REGIONAL REPORTS...SASKATCHEWAN

CITY           SKY/WX    TMP DP  RH WIND       PRES   REMARKS
SWIFT CURRENT  FLURRIES  16  14  93 NW12      29.76R WCI   3
REGINA         CLOUDY    19  16  86 NW15      29.78R WCI   5
SASKATOON      FLURRIES   9   5  85 NW6       29.84R WCI  -1
CYPRESS HILLS    N/A     14  10  85 NW1         N/A
VAL MARIE        N/A     21  16  79 N10         N/A  WCI  10
ROCKGLEN         N/A     18  16  93 NW9         N/A  WCI   6
ASSINIBOIA       N/A     14  12  92 CALM        N/A
$$



USA.gov is the U.S. government's official web portal to all federal, state and local government web resources and services.